[[{"header":{"parameterUnit":"m.s-1","parameterCategory":1,"la1":30.2991,"la2":30.254,"lo1":-89.0895,"lo2":-89.0444,"dy":0.0017,"dx":0.0017,"nx":28,"ny":28,"refTime":"2023-05-28T21:00:00:Z","depth":0,"parameterNumber":2,"parameterNumberName":"U-component_of_WINDS"},"data":[0,0,0,0,0,0,0,0,0,0,0,0,0,0,0,0,0,0,0,0,0,0,0,0,0,0,0,0,0,0,0,0,0,0,0,0,0,0,0,0,0,0,0,0,0,0,0,0,0,0,0,0,0,0,0,0,0,0,0.8259,0.8258,0,0.8166,0.8165,0.8164,0.8001,0.7998,0.7995,0.7992,0.7901,0.7901,0.7902,0,0,0,0,0,0,0,0,0,0,0,0,0,0.8301,0.8301,0.8259,0.8258,0.8257,0.8166,0.8165,0.8164,0.8002,0.7998,0.7994,0.7991,0.7901,0.7901,0.7902,0,0,0,0,0,0,0,0,0,0,0,0,0,0.8253,0.8301,0.826,0.8165,0.8156,0.8166,0.8165,0.8163,0.8002,0.7998,0.7993,0.7989,0.7901,0.7901,0.7902,0.7998,0,0,0.7904,0.7904,0,0,0,0,0,0,0,0,0.8256,0.8251,0.818,0.8172,0.8161,0.809,0.8146,0.8108,0.8004,0.8061,0.7992,0.7987,0.7968,0.7963,0.7955,0.7994,0.799,0.7904,0.7904,0.7905,0.7905,0,0,0,0,0,0,0,0.8259,0.8255,0.8222,0.8179,0.8168,0.8128,0.8117,0.8138,0.8042,0.8056,0.8043,0.8034,0.7962,0.7955,0.7952,0.7989,0.7904,0.7904,0.7905,0.7905,0.8101,0.8105,0,0,0,0,0,0,0.8276,0.8258,0.8225,0.822,0.8198,0.8132,0.8118,0.8118,0.8041,0.8025,0.8038,0.8027,0.7956,0.7952,0.7948,0.8056,0.7905,0.7905,0.7906,0.8096,0.8102,0.8107,0,0,0,0,0,0,0.8277,0.8274,0.8229,0.8236,0.8227,0.8136,0.8137,0.8119,0.8112,0.8028,0.801,0.8049,0.7953,0.7947,0.7986,0.805,0.7905,0.7906,0.809,0.8098,0.8104,0.8272,0,0,0,0,0,0,0.8279,0.8276,0.8311,0.8238,0.8227,0.8269,0.8141,0.812,0.8113,0.8097,0.8033,0.8018,0.7949,0.7986,0.7987,0.8049,0.7907,0.8084,0.8093,0.8102,0.8261,0.8285,0.8305,0,0,0,0,0,0.8281,0.8363,0.8314,0.8311,0.8269,0.8273,0.8267,0.8184,0.8119,0.8153,0.8099,0.802,0.8043,0.7992,0.7991,0.8054,0.808,0.8091,0.8101,0.8251,0.828,0.8304,0,0,0,0,0,0,0.8449,0.8352,0.8296,0.8357,0.8324,0.8245,0.8287,0.8217,0.8203,0.819,0.8088,0.8075,0.8127,0.8094,0.8039,0.8143,0.8049,0.806,0.8163,0.819,0.8211,0.8219,0.7907,0,0,0,0,0,0.8492,0.8502,0.8418,0.8479,0.8465,0.838,0.8378,0.8316,0.8279,0.8265,0.8214,0.8182,0.8181,0.8183,0.8178,0.8254,0.8238,0.8297,0.8319,0.8338,0.8349,0.8387,0.8412,0.8142,0.8142,0.8142,0,0,0.8583,0.8532,0.8545,0.8512,0.8479,0.8493,0.8369,0.8389,0.8398,0.8268,0.8302,0.8263,0.822,0.8279,0.8302,0.8253,0.842,0.8351,0.8367,0.8368,0.8401,0.8426,0.8449,0.815,0.8148,0.8147,0,0,0.8756,0.8718,0.8764,0.8734,0.8685,0.8627,0.8639,0.857,0.8539,0.8571,0.8473,0.8483,0.8485,0.8458,0.8445,0.8606,0.8533,0.8607,0.8723,0.8761,0.8782,0.8801,0.8859,0.8881,0.8619,0.8619,0.8619,0,0.8876,0.8891,0.8798,0.8823,0.8812,0.8693,0.874,0.8715,0.8669,0.8664,0.8609,0.8607,0.857,0.8621,0.866,0.8653,0.8663,0.8615,0.8786,0.8804,0.882,0.8874,0.8896,0.8628,0.8627,0.8626,0.8626,0,0.9041,0.9053,0.9097,0.9053,0.9046,0.9083,0.8996,0.9,0.8939,0.8887,0.8921,0.8872,0.8854,0.8861,0.8802,0.8903,0.8874,0.8805,0.8708,0.8856,0.8906,0.8926,0.8642,0.8639,0.8636,0.8633,0,0,0.9318,0.9221,0.9239,0.9217,0.9154,0.9162,0.9193,0.9175,0.9181,0.9152,0.9176,0.9179,0.9114,0.9099,0.9036,0.9069,0.92,0.8994,0.8992,0.9035,0.9308,0.9362,0.9388,0.915,0.9154,0.9157,0.9312,0,0.9479,0.9525,0.9442,0.9508,0.9518,0.9405,0.9431,0.9397,0.9349,0.9351,0.9297,0.9302,0.9215,0.9205,0.9232,0.9179,0.9254,0.9166,0.9173,0.9174,0.9189,0.9413,0.9471,0.962,0.9331,0.9334,0.9336,0,0.9672,0.9652,0.9719,0.9651,0.9652,0.9678,0.9654,0.9657,0.9615,0.9577,0.956,0.9485,0.9511,0.9417,0.9452,0.9394,0.9392,0.9366,0.9369,0.9368,0.9266,0.9419,0.9665,0.9689,0.9366,0.9363,0.9361,0,0.9869,0.9858,0.9896,0.9881,0.9803,0.9824,0.9792,0.9745,0.9739,0.9718,0.9713,0.9697,0.9688,0.9677,0.9599,0.9538,0.9644,0.9544,0.9615,0.9617,0.9644,0.9643,0.9894,0.9641,0.964,0.964,0.964,0,1.0057,1.0103,0.9984,1.0008,1.0056,0.9959,1.001,0.9967,0.9926,0.994,0.9841,0.9856,0.9752,0.9757,0.9696,0.9734,0.9731,0.9702,0.9686,0.9712,0.9716,0.971,0.9698,0.9646,0.9644,0.9643,0.9642,0,1.0286,1.0207,1.0242,1.0164,1.0146,1.0185,1.0118,1.0138,1.0082,1.0102,1.0101,1.0015,1.0015,0.9935,0.992,0.9879,0.9943,0.9908,0.9958,0.9947,1.0023,1.0017,1.028,1.0309,1.0037,1.004,1.0042,0,1.0412,1.0444,1.0369,1.0371,1.0344,1.0348,1.0341,1.0247,1.0244,1.0197,1.0223,1.0214,1.0202,1.0208,1.0145,1.0132,1.0096,1.0188,1.0093,1.0118,1.0098,1.0097,1.01,1.0209,1.0213,1.0215,1.0218,0,1.0644,1.0603,1.0596,1.0576,1.0569,1.0549,1.0522,1.053,1.0427,1.0428,1.0426,1.0417,1.04,1.0393,1.0368,1.0336,1.0261,1.0248,1.0264,1.0291,1.0319,1.0306,1.0014,1.0243,1.024,1.0238,1.0237,1.0236,1.0825,1.0849,1.08,1.0795,1.0764,1.0741,1.0756,1.0701,1.0698,1.0675,1.062,1.0627,1.0583,1.0542,1.0516,1.0521,1.0475,1.0498,1.0504,1.0511,1.0526,1.0318,1.0516,1.0515,1.0514,1.0514,1.0513,0,1.1053,1.1015,1.1012,1.0977,1.0973,1.09,1.0866,1.0869,1.0876,1.084,1.083,1.0828,1.0821,1.0756,1.0741,1.0757,1.0722,1.0757,1.0755,1.0749,1.0568,1.0556,1.0785,1.0785,1.0785,1.0785,1.0785,1.0785,1.1171,1.1207,1.116,1.118,1.1141,1.1147,1.1134,1.1112,1.1083,1.1085,1.1078,1.1035,1.0988,1.0968,1.0959,1.0939,1.0939,1.0986,1.0956,1.0788,1.0762,1.0737,1.0725,1.0986,1.0987,1.1136,1.1138,1.1139]},{"header":{"parameterUnit":"m.s-1","parameterCategory":1,"la1":30.2991,"la2":30.254,"lo1":-89.0895,"lo2":-89.0444,"dy":0.0017,"dx":0.0017,"nx":28,"ny":28,"refTime":"2023-05-28T21:00:00:Z","depth":0,"parameterNumber":3,"parameterNumberName":"V-component_of_WINDS"},"data":[0,0,0,0,0,0,0,0,0,0,0,0,0,0,0,0,0,0,0,0,0,0,0,0,0,0,0,0,0,0,0,0,0,0,0,0,0,0,0,0,0,0,0,0,0,0,0,0,0,0,0,0,0,0,0,0,0,0,-1.3325,-1.3326,0,-1.3428,-1.3429,-1.343,-1.3473,-1.3473,-1.3472,-1.3472,-1.3575,-1.3578,-1.3581,0,0,0,0,0,0,0,0,0,0,0,0,0,-1.3161,-1.3164,-1.3324,-1.3326,-1.3327,-1.3428,-1.3429,-1.3431,-1.3473,-1.3473,-1.3472,-1.3472,-1.3574,-1.3578,-1.3581,0,0,0,0,0,0,0,0,0,0,0,0,0,-1.3245,-1.3165,-1.3324,-1.336,-1.3365,-1.3428,-1.3429,-1.3431,-1.3473,-1.3473,-1.3472,-1.3472,-1.3573,-1.3578,-1.3582,-1.3616,0,0,-1.3595,-1.3597,0,0,0,0,0,0,0,0,-1.324,-1.3251,-1.3354,-1.3358,-1.3363,-1.3437,-1.341,-1.3493,-1.3473,-1.3432,-1.3472,-1.3472,-1.3529,-1.3537,-1.3558,-1.3621,-1.3625,-1.3596,-1.3599,-1.36,-1.3602,0,0,0,0,0,0,0,-1.3234,-1.3247,-1.3365,-1.3355,-1.3361,-1.3371,-1.3382,-1.3426,-1.3481,-1.3435,-1.3439,-1.345,-1.3532,-1.3553,-1.356,-1.3627,-1.3596,-1.36,-1.3602,-1.3604,-1.3724,-1.3724,0,0,0,0,0,0,-1.3223,-1.3242,-1.3362,-1.3369,-1.33,-1.3374,-1.3387,-1.3414,-1.3481,-1.3491,-1.3451,-1.3452,-1.3546,-1.3555,-1.3564,-1.3609,-1.36,-1.3605,-1.3607,-1.3723,-1.3724,-1.3724,0,0,0,0,0,0,-1.3219,-1.3233,-1.3358,-1.3306,-1.3323,-1.3377,-1.3407,-1.3416,-1.3437,-1.3492,-1.3502,-1.3462,-1.3546,-1.3558,-1.3603,-1.3613,-1.3607,-1.3611,-1.3722,-1.3723,-1.3724,-1.3698,0,0,0,0,0,0,-1.3214,-1.3232,-1.3246,-1.3306,-1.3325,-1.3396,-1.3408,-1.3418,-1.3445,-1.3448,-1.3506,-1.3515,-1.3547,-1.3596,-1.3607,-1.3619,-1.3614,-1.3722,-1.3723,-1.3724,-1.3698,-1.3698,-1.3698,0,0,0,0,0,-1.3208,-1.3233,-1.3246,-1.326,-1.3344,-1.3396,-1.3407,-1.3443,-1.3446,-1.346,-1.3496,-1.3513,-1.361,-1.36,-1.3613,-1.3626,-1.3721,-1.3723,-1.3724,-1.3699,-1.3698,-1.3698,0,0,0,0,0,0,-1.3171,-1.3242,-1.3257,-1.3302,-1.3343,-1.3403,-1.3422,-1.3442,-1.3482,-1.3483,-1.3525,-1.3538,-1.358,-1.3608,-1.3596,-1.3663,-1.3667,-1.3671,-1.3644,-1.3644,-1.3643,-1.3636,-1.3618,0,0,0,0,0,-1.3169,-1.3206,-1.3265,-1.33,-1.332,-1.3367,-1.3391,-1.3416,-1.346,-1.3477,-1.3516,-1.3556,-1.3596,-1.3621,-1.3661,-1.3703,-1.3716,-1.3718,-1.3718,-1.3717,-1.372,-1.3745,-1.3746,-1.3728,-1.3728,-1.3728,0,0,-1.3163,-1.3206,-1.3227,-1.3293,-1.3328,-1.3365,-1.3381,-1.342,-1.3448,-1.3482,-1.3528,-1.3558,-1.3606,-1.365,-1.3671,-1.3675,-1.3728,-1.3719,-1.3718,-1.3721,-1.3746,-1.3748,-1.3749,-1.3729,-1.3729,-1.3729,0,0,-1.3172,-1.3209,-1.3242,-1.3276,-1.3329,-1.3361,-1.3368,-1.3426,-1.3448,-1.3494,-1.3521,-1.3555,-1.3622,-1.3656,-1.3682,-1.3705,-1.3723,-1.3716,-1.3714,-1.3738,-1.3739,-1.3741,-1.3749,-1.3752,-1.3719,-1.3719,-1.3719,0,-1.3158,-1.3216,-1.3256,-1.3294,-1.3322,-1.3356,-1.339,-1.3421,-1.3483,-1.3502,-1.3505,-1.3591,-1.3626,-1.3678,-1.3684,-1.3704,-1.3714,-1.371,-1.3736,-1.3738,-1.374,-1.3748,-1.3751,-1.3718,-1.3718,-1.3718,-1.3718,0,-1.3197,-1.3237,-1.3257,-1.3318,-1.3349,-1.3384,-1.3428,-1.3454,-1.3476,-1.3508,-1.3555,-1.3598,-1.3647,-1.3662,-1.3683,-1.3717,-1.3718,-1.3728,-1.3733,-1.374,-1.3749,-1.3752,-1.3716,-1.3716,-1.3717,-1.3717,0,0,-1.3185,-1.3268,-1.3275,-1.3303,-1.3364,-1.3395,-1.3432,-1.3482,-1.3503,-1.3545,-1.3577,-1.3634,-1.3644,-1.3673,-1.3699,-1.3719,-1.3735,-1.3727,-1.3729,-1.3727,-1.3776,-1.3769,-1.3772,-1.3748,-1.3749,-1.3749,-1.3773,0,-1.3203,-1.3271,-1.3308,-1.3361,-1.3398,-1.3432,-1.3464,-1.3504,-1.3535,-1.357,-1.3603,-1.3643,-1.3653,-1.3671,-1.3693,-1.3729,-1.3746,-1.3728,-1.3777,-1.3779,-1.3765,-1.3776,-1.3768,-1.3788,-1.3776,-1.3777,-1.3777,0,-1.3232,-1.3275,-1.3332,-1.3389,-1.3406,-1.3435,-1.3483,-1.3517,-1.3564,-1.3584,-1.3618,-1.3643,-1.3683,-1.3685,-1.374,-1.3727,-1.3749,-1.377,-1.3771,-1.3778,-1.3778,-1.3783,-1.3795,-1.3798,-1.3783,-1.3782,-1.3782,0,-1.3218,-1.329,-1.3334,-1.3357,-1.3425,-1.3444,-1.3473,-1.352,-1.3547,-1.3589,-1.3608,-1.3653,-1.3678,-1.3713,-1.375,-1.3748,-1.3802,-1.3806,-1.382,-1.3819,-1.3829,-1.3828,-1.3846,-1.3843,-1.3843,-1.3843,-1.3843,0,-1.3234,-1.3268,-1.3329,-1.3355,-1.3394,-1.3436,-1.3472,-1.3504,-1.3545,-1.3578,-1.3609,-1.364,-1.3687,-1.3723,-1.3752,-1.3793,-1.3804,-1.3822,-1.3829,-1.3819,-1.3817,-1.3834,-1.3834,-1.3844,-1.3844,-1.3844,-1.3844,0,-1.3225,-1.3267,-1.3317,-1.3378,-1.3394,-1.342,-1.3472,-1.3499,-1.3531,-1.3572,-1.3584,-1.3635,-1.3679,-1.3719,-1.3777,-1.3797,-1.3839,-1.3848,-1.3824,-1.3828,-1.3839,-1.3837,-1.3868,-1.3875,-1.3868,-1.3868,-1.3868,0,-1.3233,-1.326,-1.3324,-1.3349,-1.3378,-1.3417,-1.3446,-1.3488,-1.3517,-1.3572,-1.3593,-1.3639,-1.3679,-1.3747,-1.3789,-1.3833,-1.3844,-1.3852,-1.3851,-1.384,-1.3845,-1.3843,-1.3846,-1.3851,-1.3851,-1.3851,-1.3851,0,-1.3242,-1.3261,-1.3302,-1.3351,-1.3384,-1.3424,-1.3465,-1.3483,-1.3533,-1.3563,-1.3609,-1.364,-1.37,-1.3746,-1.3796,-1.3825,-1.3846,-1.3851,-1.3857,-1.3847,-1.3832,-1.384,-1.3822,-1.385,-1.385,-1.385,-1.385,-1.385,-1.3241,-1.3267,-1.3317,-1.3361,-1.3397,-1.3434,-1.3463,-1.3499,-1.3539,-1.3592,-1.3614,-1.3661,-1.3707,-1.3776,-1.3805,-1.3842,-1.3847,-1.3854,-1.3857,-1.3858,-1.3856,-1.3826,-1.3851,-1.3851,-1.3851,-1.3852,-1.3852,0,-1.3252,-1.3286,-1.3327,-1.3383,-1.3418,-1.3437,-1.3483,-1.351,-1.3552,-1.3594,-1.3632,-1.3685,-1.373,-1.3775,-1.3823,-1.3843,-1.3854,-1.3854,-1.3853,-1.386,-1.3849,-1.384,-1.3845,-1.3845,-1.3845,-1.3845,-1.3845,-1.3845,-1.3262,-1.3307,-1.3333,-1.3395,-1.3429,-1.3476,-1.35,-1.3535,-1.3569,-1.3627,-1.3665,-1.3695,-1.3738,-1.3789,-1.3831,-1.3843,-1.3859,-1.3856,-1.3871,-1.386,-1.386,-1.386,-1.3852,-1.3859,-1.3859,-1.3878,-1.3878,-1.3878]}]]